• In United Kingdom
  • List of Countries
  • For 7 days
  • Water Temperature
  • Satellite Maps
  • Weather Map
  • Weather Widgets
  • user-avatar
    Login

    Hourly Weather Niczonow

    Today, 16 July, Monday

    Time Temperature Precipitation Wind Pressure Humidity
    00:00 +16°C° 0 mm 2 mps 761 mmHg 91%
    01:00 +16°C° 0 mm 2 mps 761 mmHg 91%
    02:00 +16°C° 0 mm 2 mps 760 mmHg 91%
    03:00 +16°C° 0 mm 2 mps 760 mmHg 91%
    04:00 +16°C° 0 mm 2 mps 760 mmHg 91%
    05:00 +17°C° 0 mm 2 mps 760 mmHg 88%
    06:00 +19°C° 0 mm 2 mps 760 mmHg 84%
    07:00 +20°C° 0 mm 2 mps 760 mmHg 80%
    08:00 +21°C° 0 mm 2 mps 760 mmHg 75%
    09:00 +23°C° 0 mm 2 mps 760 mmHg 69%
    10:00 +24°C° 0 mm 2 mps 760 mmHg 64%
    11:00 +25°C° 0 mm 2 mps 759 mmHg 63%
    12:00 +26°C° 0 mm 3 mps 759 mmHg 61%
    13:00 +26°C° 0 mm 3 mps 759 mmHg 60%
    14:00 +26°C° 0 mm 3 mps 759 mmHg 61%
    15:00 +26°C° 0 mm 3 mps 758 mmHg 62%
    16:00 +25°C° 0 mm 3 mps 758 mmHg 63%
    17:00 +24°C° 0 mm 3 mps 758 mmHg 68%
    18:00 +22°C° 0 mm 3 mps 758 mmHg 72%
    19:00 +21°C° 0 mm 2 mps 758 mmHg 77%
    20:00 +20°C° 0 mm 2 mps 758 mmHg 79%
    21:00 +19°C° 0 mm 2 mps 758 mmHg 80%
    22:00 +18°C° 0 mm 2 mps 758 mmHg 82%
    23:00 +18°C° 0 mm 2 mps 758 mmHg 83%

    Tomorrow, 17 July, Tuesday

    Time Temperature Precipitation Wind Pressure Humidity
    00:00 +18°C° 0 mm 2 mps 758 mmHg 84%
    01:00 +18°C° 0 mm 3 mps 758 mmHg 85%
    02:00 +18°C° 0 mm 3 mps 758 mmHg 85%
    03:00 +18°C° 0 mm 3 mps 757 mmHg 85%
    04:00 +18°C° 0 mm 3 mps 757 mmHg 85%
    05:00 +19°C° 0.3 mm 3 mps 757 mmHg 86%
    06:00 +19°C° 0.3 mm 3 mps 757 mmHg 86%
    07:00 +20°C° 0.3 mm 4 mps 757 mmHg 86%
    08:00 +20°C° 1 mm 4 mps 757 mmHg 87%
    09:00 +20°C° 1 mm 4 mps 757 mmHg 87%
    10:00 +20°C° 1 mm 4 mps 757 mmHg 88%
    11:00 +20°C° 0.6 mm 5 mps 757 mmHg 88%
    12:00 +20°C° 0.6 mm 5 mps 757 mmHg 88%
    13:00 +21°C° 0.6 mm 5 mps 757 mmHg 89%
    14:00 +21°C° 0.2 mm 5 mps 757 mmHg 88%
    15:00 +21°C° 0.2 mm 5 mps 757 mmHg 87%
    16:00 +21°C° 0.2 mm 5 mps 757 mmHg 87%
    17:00 +21°C° 0.2 mm 5 mps 757 mmHg 89%
    18:00 +20°C° 0.2 mm 4 mps 757 mmHg 91%
    19:00 +20°C° 0.2 mm 4 mps 757 mmHg 93%
    20:00 +19°C° 0.2 mm 4 mps 757 mmHg 94%
    21:00 +19°C° 0.2 mm 4 mps 757 mmHg 95%
    22:00 +19°C° 0.2 mm 3 mps 757 mmHg 96%
    23:00 +19°C° 0.2 mm 3 mps 757 mmHg 97%

    Day after tomorrow, 18 July, Wednesday

    Time Temperature Precipitation Wind Pressure Humidity
    00:00 +19°C° 0.2 mm 3 mps 757 mmHg 97%
    01:00 +19°C° 0.2 mm 3 mps 757 mmHg 97%
    02:00 +19°C° 0.7 mm 4 mps 757 mmHg 97%
    03:00 +19°C° 0.7 mm 4 mps 756 mmHg 97%
    04:00 +19°C° 0.7 mm 4 mps 756 mmHg 96%
    05:00 +19°C° 1.1 mm 4 mps 757 mmHg 96%
    06:00 +19°C° 1.1 mm 4 mps 757 mmHg 95%
    07:00 +19°C° 1.1 mm 4 mps 757 mmHg 94%
    08:00 +20°C° 0.5 mm 4 mps 757 mmHg 91%
    09:00 +20°C° 0.5 mm 4 mps 757 mmHg 88%
    10:00 +21°C° 0.5 mm 4 mps 757 mmHg 84%
    11:00 +22°C° 0 mm 5 mps 757 mmHg 80%
    12:00 +23°C° 0 mm 5 mps 757 mmHg 75%
    13:00 +25°C° 0 mm 5 mps 757 mmHg 70%
    14:00 +25°C° 0 mm 5 mps 758 mmHg 69%
    15:00 +25°C° 0 mm 5 mps 758 mmHg 68%
    16:00 +25°C° 0 mm 5 mps 758 mmHg 68%
    17:00 +23°C° 0 mm 5 mps 758 mmHg 71%
    18:00 +22°C° 0 mm 4 mps 758 mmHg 74%
    19:00 +22°C° 0 mm 4 mps 758 mmHg 76%
    20:00 +21°C° 0 mm 4 mps 758 mmHg 78%
    21:00 +20°C° 0 mm 4 mps 758 mmHg 80%
    22:00 +19°C° 0 mm 4 mps 759 mmHg 82%
    23:00 +19°C° 0 mm 4 mps 759 mmHg 84%

    19 July, Thursday

    Time Temperature Precipitation Wind Pressure Humidity
    00:00 +18°C° 0 mm 4 mps 759 mmHg 85%
    01:00 +18°C° 0 mm 4 mps 759 mmHg 87%
    02:00 +18°C° 0 mm 4 mps 759 mmHg 89%
    03:00 +18°C° 0 mm 4 mps 759 mmHg 91%
    04:00 +17°C° 0 mm 4 mps 759 mmHg 94%
    05:00 +17°C° 0 mm 5 mps 759 mmHg 91%
    06:00 +19°C° 0 mm 5 mps 760 mmHg 88%
    07:00 +20°C° 0 mm 5 mps 760 mmHg 85%
    08:00 +21°C° 0 mm 5 mps 760 mmHg 82%
    09:00 +21°C° 0 mm 5 mps 760 mmHg 79%
    10:00 +22°C° 0 mm 5 mps 760 mmHg 76%
    11:00 +22°C° 0 mm 5 mps 760 mmHg 73%
    12:00 +22°C° 0 mm 6 mps 760 mmHg 71%
    13:00 +22°C° 0 mm 6 mps 760 mmHg 69%
    14:00 +22°C° 0 mm 6 mps 760 mmHg 67%
    15:00 +22°C° 0 mm 5 mps 760 mmHg 65%
    16:00 +22°C° 0 mm 5 mps 760 mmHg 63%
    17:00 +21°C° 0 mm 5 mps 760 mmHg 66%
    18:00 +21°C° 0 mm 4 mps 760 mmHg 69%
    19:00 +20°C° 0 mm 4 mps 760 mmHg 71%
    20:00 +19°C° 0 mm 4 mps 760 mmHg 74%
    21:00 +18°C° 0 mm 4 mps 760 mmHg 76%
    22:00 +17°C° 0 mm 4 mps 761 mmHg 78%
    23:00 +15°C° 0 mm 4 mps 761 mmHg 79%

    20 July, Friday

    Time Temperature Precipitation Wind Pressure Humidity
    00:00 +16°C° 0 mm 3 mps 761 mmHg 81%
    01:00 +16°C° 0 mm 3 mps 761 mmHg 82%
    02:00 +16°C° 0 mm 3 mps 760 mmHg 83%
    03:00 +16°C° 0 mm 3 mps 760 mmHg 84%
    04:00 +14°C° 0 mm 3 mps 760 mmHg 86%
    05:00 +17°C° 0 mm 3 mps 760 mmHg 82%
    06:00 +18°C° 0 mm 2 mps 760 mmHg 78%
    07:00 +19°C° 0 mm 2 mps 760 mmHg 74%
    08:00 +20°C° 0 mm 2 mps 760 mmHg 69%
    09:00 +21°C° 0 mm 2 mps 760 mmHg 64%
    10:00 +23°C° 0 mm 2 mps 760 mmHg 59%
    11:00 +24°C° 0 mm 2 mps 760 mmHg 57%
    12:00 +24°C° 0 mm 2 mps 760 mmHg 55%
    13:00 +25°C° 0 mm 2 mps 760 mmHg 53%
    14:00 +25°C° 0 mm 2 mps 759 mmHg 54%
    15:00 +25°C° 0 mm 2 mps 759 mmHg 55%
    16:00 +25°C° 0 mm 2 mps 759 mmHg 56%
    17:00 +24°C° 0 mm 2 mps 759 mmHg 61%
    18:00 +23°C° 0 mm 2 mps 759 mmHg 66%
    19:00 +21°C° 0 mm 2 mps 758 mmHg 71%
    20:00 +20°C° 0 mm 2 mps 758 mmHg 73%
    21:00 +19°C° 0 mm 2 mps 759 mmHg 74%
    22:00 +18°C° 0 mm 2 mps 759 mmHg 76%
    23:00 +17°C° 0 mm 2 mps 759 mmHg 76%

    21 July, Saturday

    Time Temperature Precipitation Wind Pressure Humidity
    00:00 +17°C° 0 mm 2 mps 758 mmHg 76%
    01:00 +16°C° 0 mm 2 mps 758 mmHg 76%
    02:00 +16°C° 0 mm 2 mps 758 mmHg 76%
    03:00 +16°C° 0 mm 2 mps 758 mmHg 75%
    04:00 +16°C° 0 mm 2 mps 758 mmHg 75%
    05:00 +17°C° 0 mm 2 mps 758 mmHg 74%
    06:00 +18°C° 0 mm 2 mps 758 mmHg 72%
    07:00 +19°C° 0 mm 2 mps 758 mmHg 71%
    08:00 +20°C° 0 mm 3 mps 758 mmHg 66%
    09:00 +22°C° 0 mm 3 mps 758 mmHg 61%
    10:00 +23°C° 0 mm 4 mps 758 mmHg 57%
    11:00 +25°C° 0 mm 4 mps 757 mmHg 55%
    12:00 +26°C° 0 mm 4 mps 757 mmHg 53%
    13:00 +26°C° 0 mm 4 mps 757 mmHg 51%
    14:00 +26°C° 0 mm 4 mps 757 mmHg 54%
    15:00 +26°C° 0 mm 5 mps 757 mmHg 56%
    16:00 +26°C° 0 mm 5 mps 756 mmHg 58%
    17:00 +23°C° 0 mm 5 mps 756 mmHg 63%
    18:00 +22°C° 0 mm 5 mps 756 mmHg 68%
    19:00 +21°C° 0 mm 5 mps 756 mmHg 73%
    20:00 +20°C° 0 mm 5 mps 756 mmHg 75%
    21:00 +20°C° 0 mm 4 mps 757 mmHg 77%
    22:00 +19°C° 0 mm 4 mps 757 mmHg 79%
    23:00 +18°C° 0 mm 4 mps 757 mmHg 80%
    Show more